SL-14 R/B

基本信息
目录编号:
13590
目录名称:
SL-14 R/B
国际标识:
1982-096B
轨道中心:
EARTH
物体状态:
在轨
发射日期:
1982-09-24 UTC
国别:
俄罗斯(独联体) (CIS)
轨道信息
数据来源: 国际轨道数据
星历时间: 2026-08-26T08:42:23+0800
半长轴: 7873.372km
偏心率: 0.0006684
轨道倾角: 82.605°
近地点辐角: 148.127°
升交点赤经: 61.625°
平近点角: 330.834°
近地点: 1489.972km
远地点: 1500.498km
周期: 115.878分钟
每日圈数: 12.426866
详细信息
发射场:
PKMTR
轨道高度:
LEO
数据来源:
AOE Integration Group
参考系:
TEME
时间系统:
UTC
历元类型:
SGP4
2D轨道图
3D轨道图
轨道高度分析图
轨道倾角分析图
轨道综合分析图
查看轨道综合分析图